Flag for Germany Weather past 2 weeks in Rostock, Mecklenburg-Western Pomerania, Germany

Now
49 °F

Scattered clouds.


Feels Like: 46 °F
Forecast: 41 / 56 °F
Wind: 8 mph from West

Location: Rostock-Warnemuende

Current Time: Apr 21, 2015 at 7:41:17 AM

Latest Report: Apr 21, 2015 at 7:00 AM


Visibility: 19 mi

Pressure: 30.26 "Hg

Humidity: 73%

Dew point: 41 °F

Location of RostockLocation

Historic Weather in Rostock — Graph

°F

Rostock temperature yesterday

Maximum temperature yesterday: 53 °F (at 7:00 PM)
Minimum temperature yesterday: 46 °F (at 6:00 AM)
Average temperature yesterday: 49 °F

Past Weeks' High & Low Weather Summary

 TemperatureHumidityPressure
High70 °F (Apr 11, 4:00 PM)98% (Apr 7, 11:00 PM)30.55 "Hg (Apr 7, 11:00 PM)
Low35 °F (Apr 7, 4:00 AM)33% (Apr 11, 4:00 PM)29.78 "Hg (Apr 15, 6:00 PM)
Average47 °F75%30.20 "Hg
* Reported Apr 6 6:00 AM — Apr 21 6:00 AM, Rostock, Weather by CustomWeather, © 2015

Note: Actual official high and low records may vary slightly from our data, if they occured in-between our weather recording intervals... More about our weather records

Advertising

Rostock weather history for previous 24 hours

 ConditionsComfort  
Time TempWeatherWind HumidityBarometerVisibility
6:00 AM
Tue, Apr 21
49 °FScattered clouds.9 mph75%30.26 "Hg19 mi
5:00 AM50 °FClear.8 mph65%30.28 "Hg25 mi
4:00 AM50 °FClear.5 mph62%30.29 "Hg22 mi
3:00 AM50 °FClear.5 mph73%30.30 "Hg22 mi
2:00 AM49 °FClear.6 mph85%30.31 "Hg22 mi
1:00 AM49 °FClear.6 mph78%30.31 "Hg25 mi
12:00 AM49 °FClear.6 mph81%30.32 "Hg31 mi
11:00 PM
Mon, Apr 20
49 °FPassing clouds.6 mph82%30.32 "Hg34 mi
10:00 PM49 °FPassing clouds.5 mph86%30.32 "Hg34 mi
9:00 PM50 °FPassing clouds.6 mph83%30.32 "Hg34 mi
8:00 PM52 °FOvercast.7 mph70%30.31 "Hg37 mi
7:00 PM53 °FOvercast.6 mph57%30.31 "Hg37 mi
6:00 PM52 °FOvercast.2 mph45%30.32 "Hg37 mi
5:00 PM51 °FOvercast.1 mph62%30.32 "Hg31 mi
4:00 PM52 °FPartly sunny.3 mph59%30.33 "Hg31 mi
3:00 PM52 °FPartly sunny.6 mph61%30.33 "Hg34 mi
2:00 PM51 °FPartly sunny.6 mph67%30.33 "Hg34 mi
1:00 PM51 °FPartly sunny.7 mph67%30.33 "Hg34 mi
12:00 PM50 °FPartly sunny.7 mph68%30.31 "Hg34 mi
11:00 AM50 °FScattered clouds.6 mph72%30.30 "Hg31 mi
10:00 AM49 °FPassing clouds.5 mph75%30.28 "Hg28 mi
9:00 AM48 °FPassing clouds.6 mph82%30.26 "Hg28 mi
8:00 AM47 °FPassing clouds.6 mph84%30.25 "Hg28 mi
7:00 AM47 °FSunny.6 mph79%30.23 "Hg19 mi
Weather by CustomWeather, © 2015

See weather overviewHow to use our weather pages